CST,Max TemperatureF,Mean TemperatureF,Min TemperatureF,Max Dew PointF,MeanDew PointF,Min DewpointF,Max Humidity, Mean Humidity, Min Humidity, Max Sea Level PressureIn, Mean Sea Level PressureIn, Min Sea Level PressureIn, Max VisibilityMiles, Mean VisibilityMiles, Min VisibilityMiles, Max Wind SpeedMPH, Mean Wind SpeedMPH, Max Gust SpeedMPH,PrecipitationIn, CloudCover, Events, WindDirDegrees
2012-12-1,82,55,28,52,40,28,99,58,15,30.65,29.90,29.78,10,10,6,20,10,25,0.03,0,,181
2012-12-2,77,58,38,55,41,30,83,59,22,30.05,29.95,29.86,10,10,10,14,8,,0.00,0,,185
2012-12-3,82,70,56,61,45,29,100,55,15,30.03,29.85,29.76,10,10,4,21,14,26,0.00,0,,222
2012-12-4,65,52,38,39,28,18,56,40,16,30.32,30.24,30.04,10,10,10,20,13,22,0.00,0,,16
2012-12-5,62,47,32,30,26,22,67,46,24,30.32,30.17,29.97,10,10,10,10,5,,0.00,0,,120
2012-12-6,68,54,40,42,36,29,99,60,24,29.94,29.83,29.74,10,10,10,14,10,20,0.00,0,,63
2012-12-7,58,48,39,42,37,34,98,73,53,29.93,29.87,29.80,10,10,10,13,8,,0.00,0,,327
2012-12-8,48,42,35,45,39,35,100,98,82,29.97,29.89,29.77,10,5,0,12,7,,0.00,4,Fog,52
2012-12-9,52,42,32,46,36,8,100,83,23,30.19,29.87,29.73,10,5,0,26,9,34,0.00,5,Fog,354
2012-12-10,40,30,20,18,8,3,61,42,27,30.27,30.17,30.09,10,10,10,25,15,29,0.00,1,Rain-Snow,302
2012-12-11,48,32,15,18,13,10,79,53,26,30.21,30.15,30.10,10,10,10,10,4,,0.00,0,,119
2012-12-12,58,38,18,19,16,10,71,45,21,30.24,30.15,30.06,10,10,10,22,9,28,0.00,0,,135
2012-12-13,64,47,30,34,25,18,69,49,24,30.19,30.12,30.06,10,10,10,18,10,20,0.00,0,,139
2012-12-14,59,52,46,57,47,35,100,80,51,30.08,29.83,29.64,10,9,1,34,14,41,0.26,7,Rain-Thunderstorm,157
2012-12-15,60,49,38,40,36,34,85,63,38,29.84,29.77,29.73,10,10,10,20,13,28,0.00,0,,212
2012-12-16,64,50,35,37,33,23,92,57,22,29.82,29.74,29.66,10,10,10,21,9,23,0.00,1,,263
2012-12-17,56,44,32,38,34,28,100,84,42,29.93,29.85,29.78,10,9,6,12,8,,0.00,0,,264
2012-12-18,65,46,28,34,30,24,88,61,26,29.83,29.77,29.72,10,9,2,12,4,,0.00,0,,31
2012-12-19,66,50,35,45,33,21,86,57,27,29.97,29.62,29.47,10,10,5,36,13,48,0.23,4,,210
2012-12-20,50,38,24,23,11,0,60,39,12,30.42,30.30,30.03,10,10,10,30,20,41,0.33,0,,313
2012-12-21,66,42,18,15,9,0,72,38,7,30.43,30.32,30.22,10,10,10,16,5,,0.00,0,,198
2012-12-22,58,42,25,30,15,9,67,38,15,30.21,30.08,29.93,10,10,10,21,7,,0.00,2,,160
2012-12-23,55,42,28,30,24,21,89,61,29,30.00,29.92,29.85,10,10,10,12,6,,0.00,0,,344
2012-12-24,42,34,26,24,22,21,84,61,43,30.08,29.96,29.83,10,10,10,17,9,,0.00,1,,26
2012-12-25,35,26,17,23,18,10,93,83,58,30.33,30.07,29.80,10,4,0,34,25,40,0.07,6,Fog-Rain-Snow,353
2012-12-26,25,18,12,15,9,6,84,70,56,30.35,30.26,30.12,10,10,10,20,12,,0.00,3,,8
2012-12-27,34,24,13,28,20,11,95,87,73,30.07,29.96,29.86,10,10,10,16,7,,0.00,1,,114
2012-12-28,34,29,24,23,20,17,94,73,51,30.24,30.10,29.96,10,10,4,17,10,,0.00,3,Rain-Snow,339
2012-12-29,47,33,19,29,21,14,87,72,46,30.45,30.37,30.26,10,10,10,8,6,,0.00,0,,290
2012-12-30,40,30,21,29,25,19,89,74,60,30.37,30.26,30.13,10,10,10,17,7,,0.00,1,,142
2012-12-31,45,38,31,43,36,28,100,95,74,30.11,30.03,29.96,10,7,2,20,10,,0.15,7,Rain,150